RYR1YQ EPKT-ENGM

Flight info

Callsign RYR1YQ
Flight time 1h 47m
Altitude 36000
Route LUMV2M LUMVE L619 NUDRO DCT XIDNA L619 ADVAB DCT TUPUR DCT XELOL DCT POKEN DCT ROXUB DCT TOPLA DCT SABAK DCT XENTA DCT REGMA L997 LUNIP LUNI4M
Aircraft B738/M-SDE2E3FGHIRWXY/LB1

Departure

Time 2026-05-06 15:15
Airport Katowice Wojciech Korfanty International Airport (EPKT)

Arrival

Time 2026-05-06 17:02
Airport Oslo-Gardermoen International Airport (ENGM)
Time Latitude Longitude Altitude Speed Heading
2026-05-06 14:58 50.47185 19.07149 997 ft 0 kts 180°
2026-05-06 15:05 50.47189 19.07149 997 ft 2 kts 179°
2026-05-06 15:05 50.47205 19.07146 997 ft 2 kts 165°
2026-05-06 15:06 50.47220 19.07136 999 ft 2 kts 142°
2026-05-06 15:06 50.47231 19.07117 997 ft 2 kts 112°
2026-05-06 15:06 50.47235 19.07092 997 ft 2 kts 94°
2026-05-06 15:06 50.47236 19.07080 1000 ft 0 kts 91°
2026-05-06 15:08 50.47235 19.07090 997 ft 2 kts 91°
2026-05-06 15:08 50.47235 19.07126 1000 ft 5 kts 90°
2026-05-06 15:09 50.47235 19.07190 1000 ft 7 kts 90°
2026-05-06 15:09 50.47235 19.07284 1002 ft 10 kts 90°
2026-05-06 15:09 50.47235 19.07404 1002 ft 12 kts 90°
2026-05-06 15:09 50.47234 19.07546 1002 ft 14 kts 90°
2026-05-06 15:10 50.47234 19.07711 1000 ft 16 kts 90°
2026-05-06 15:10 50.47234 19.07892 1002 ft 17 kts 90°
2026-05-06 15:10 50.47233 19.08073 1003 ft 16 kts 90°
2026-05-06 15:10 50.47233 19.08247 1003 ft 16 kts 90°
2026-05-06 15:11 50.47232 19.08413 1003 ft 15 kts 90°
2026-05-06 15:11 50.47232 19.08574 1003 ft 14 kts 90°
2026-05-06 15:11 50.47232 19.08728 1000 ft 14 kts 90°
2026-05-06 15:11 50.47231 19.08875 1001 ft 13 kts 90°
2026-05-06 15:12 50.47231 19.09016 1003 ft 13 kts 90°
2026-05-06 15:12 50.47231 19.09156 1003 ft 13 kts 90°
2026-05-06 15:12 50.47231 19.09310 1003 ft 15 kts 90°
2026-05-06 15:12 50.47230 19.09490 1003 ft 17 kts 90°
2026-05-06 15:13 50.47229 19.09684 997 ft 18 kts 90°
2026-05-06 15:13 50.47229 19.09877 1000 ft 17 kts 90°
2026-05-06 15:13 50.47250 19.10053 1002 ft 17 kts 54°
2026-05-06 15:13 50.47320 19.10193 1001 ft 16 kts 52°
2026-05-06 15:14 50.47387 19.10329 998 ft 15 kts 52°
2026-05-06 15:14 50.47461 19.10442 998 ft 15 kts 18°
2026-05-06 15:14 50.47561 19.10438 998 ft 14 kts 337°
2026-05-06 15:14 50.47595 19.10309 1000 ft 14 kts 270°
2026-05-06 15:15 50.47595 19.10023 998 ft 58 kts 270°
2026-05-06 15:15 50.47597 19.08979 1000 ft 130 kts 270°
2026-05-06 15:15 50.47585 19.07282 1298 ft 165 kts 264°
2026-05-06 15:15 50.47559 19.05442 2237 ft 167 kts 266°
2026-05-06 15:16 50.47571 19.03603 3075 ft 181 kts 268°
2026-05-06 15:16 50.47584 19.01481 3445 ft 207 kts 268°
2026-05-06 15:16 50.47596 18.99065 3705 ft 233 kts 268°
2026-05-06 15:16 50.47601 18.96394 4033 ft 255 kts 268°
2026-05-06 15:17 50.47616 18.93570 4837 ft 257 kts 268°
2026-05-06 15:17 50.47608 18.90794 5683 ft 259 kts 266°
2026-05-06 15:17 50.47570 18.87924 6456 ft 263 kts 265°
2026-05-06 15:17 50.47527 18.85042 7261 ft 265 kts 265°
2026-05-06 15:18 50.47483 18.82129 8033 ft 268 kts 265°
2026-05-06 15:18 50.47440 18.79177 8810 ft 272 kts 265°
2026-05-06 15:18 50.47398 18.76196 9576 ft 276 kts 265°
2026-05-06 15:18 50.47354 18.73152 10199 ft 285 kts 265°
2026-05-06 15:19 50.47307 18.69908 10376 ft 308 kts 266°
2026-05-06 15:19 50.47258 18.66479 10688 ft 325 kts 266°
2026-05-06 15:19 50.47207 18.62892 11338 ft 330 kts 266°
2026-05-06 15:19 50.47370 18.59271 12073 ft 336 kts 282°
2026-05-06 15:20 50.48324 18.55899 12872 ft 343 kts 300°
2026-05-06 15:20 50.49952 18.53147 13573 ft 353 kts 316°
2026-05-06 15:20 50.51890 18.50712 14188 ft 358 kts 318°
2026-05-06 15:20 50.53871 18.48277 14751 ft 364 kts 317°
2026-05-06 15:21 50.55862 18.45786 15339 ft 368 kts 317°
2026-05-06 15:21 50.57869 18.43240 15943 ft 371 kts 316°
2026-05-06 15:21 50.59883 18.40669 16521 ft 375 kts 316°
2026-05-06 15:21 50.61897 18.38092 17074 ft 380 kts 316°
2026-05-06 15:22 50.63984 18.35419 17659 ft 383 kts 316°
2026-05-06 15:22 50.66045 18.32776 18240 ft 387 kts 316°
2026-05-06 15:22 50.68144 18.30085 18784 ft 389 kts 316°
2026-05-06 15:22 50.70249 18.27383 19338 ft 390 kts 315°
2026-05-06 15:23 50.72339 18.24697 19883 ft 392 kts 315°
2026-05-06 15:23 50.74345 18.21788 20379 ft 389 kts 305°
2026-05-06 15:23 50.76033 18.18453 20919 ft 388 kts 301°
2026-05-06 15:23 50.77654 18.14997 21443 ft 390 kts 300°
2026-05-06 15:24 50.79239 18.11561 21934 ft 392 kts 300°
2026-05-06 15:24 50.80859 18.08071 22441 ft 395 kts 301°
2026-05-06 15:24 50.82502 18.04564 22934 ft 397 kts 301°
2026-05-06 15:24 50.84165 18.01047 23411 ft 399 kts 301°
2026-05-06 15:25 50.85843 17.97516 23799 ft 402 kts 301°
2026-05-06 15:25 50.87513 17.94015 24176 ft 404 kts 301°
2026-05-06 15:25 50.89217 17.90442 24569 ft 406 kts 301°
2026-05-06 15:25 50.90929 17.86851 24937 ft 408 kts 301°
2026-05-06 15:26 50.92651 17.83233 25304 ft 411 kts 301°
2026-05-06 15:26 50.94377 17.79604 25660 ft 413 kts 301°
2026-05-06 15:26 50.96095 17.75984 26015 ft 415 kts 301°
2026-05-06 15:26 50.97838 17.72306 26368 ft 417 kts 301°
2026-05-06 15:27 50.99586 17.68612 26707 ft 420 kts 301°
2026-05-06 15:27 51.01341 17.64899 27048 ft 422 kts 300°
2026-05-06 15:27 51.03106 17.61160 27379 ft 424 kts 300°
2026-05-06 15:27 51.04881 17.57392 27704 ft 426 kts 300°
2026-05-06 15:28 51.06641 17.53653 28055 ft 428 kts 300°
2026-05-06 15:28 51.08431 17.49842 28375 ft 430 kts 300°
2026-05-06 15:28 51.10231 17.46008 28682 ft 432 kts 300°
2026-05-06 15:28 51.11431 17.43448 28901 ft 434 kts 300°
2026-05-06 15:29 51.13246 17.39571 29202 ft 435 kts 300°
2026-05-06 15:29 51.15183 17.35888 29450 ft 445 kts 309°
2026-05-06 15:29 51.17584 17.32687 29731 ft 455 kts 319°
2026-05-06 15:29 51.20338 17.30086 29978 ft 466 kts 329°
2026-05-06 15:30 51.23371 17.28123 30318 ft 469 kts 333°
2026-05-06 15:30 51.26427 17.26325 30709 ft 467 kts 334°
2026-05-06 15:30 51.29486 17.24562 31091 ft 465 kts 334°
2026-05-06 15:30 51.32485 17.22815 31417 ft 463 kts 333°
2026-05-06 15:31 51.35514 17.21016 31711 ft 463 kts 333°
2026-05-06 15:31 51.38534 17.19194 32009 ft 462 kts 333°
2026-05-06 15:31 51.41533 17.17365 32338 ft 460 kts 333°
2026-05-06 15:32 51.47471 17.13718 32972 ft 458 kts 332°
2026-05-06 15:32 51.50464 17.11876 33265 ft 457 kts 332°
2026-05-06 15:32 51.53424 17.10052 33567 ft 456 kts 332°
2026-05-06 15:32 51.56396 17.08220 33845 ft 455 kts 332°
2026-05-06 15:33 51.59328 17.06410 34063 ft 455 kts 332°
2026-05-06 15:33 51.62291 17.04578 34252 ft 456 kts 332°
2026-05-06 15:33 51.65262 17.02739 34446 ft 456 kts 333°
2026-05-06 15:33 51.68196 17.00922 34659 ft 455 kts 333°
2026-05-06 15:34 51.71154 16.99086 34861 ft 455 kts 333°
2026-05-06 15:34 51.74107 16.97248 35061 ft 455 kts 333°
2026-05-06 15:34 51.77071 16.95399 35259 ft 455 kts 333°
2026-05-06 15:34 51.80027 16.93551 35452 ft 455 kts 333°
2026-05-06 15:35 51.82982 16.91702 35640 ft 454 kts 333°
2026-05-06 15:35 51.85936 16.89849 35752 ft 456 kts 333°
2026-05-06 15:35 51.91866 16.86124 35760 ft 456 kts 333°
2026-05-06 15:36 51.97594 16.82519 35765 ft 454 kts 333°
2026-05-06 15:36 52.03503 16.78787 35756 ft 453 kts 333°
2026-05-06 15:37 52.09338 16.75091 35767 ft 452 kts 333°
2026-05-06 15:37 52.15116 16.71128 35769 ft 446 kts 326°
2026-05-06 15:38 52.20530 16.66316 35791 ft 444 kts 324°
2026-05-06 15:38 52.25930 16.61340 35799 ft 446 kts 324°
2026-05-06 15:39 52.31374 16.56384 35802 ft 448 kts 324°
2026-05-06 15:39 52.36809 16.51482 35804 ft 450 kts 325°
2026-05-06 15:40 52.42315 16.46522 35801 ft 451 kts 325°
2026-05-06 15:40 52.47835 16.41534 35800 ft 452 kts 325°
2026-05-06 15:41 52.53326 16.36557 35800 ft 453 kts 325°
2026-05-06 15:41 52.58857 16.31529 35793 ft 453 kts 325°
2026-05-06 15:42 52.64376 16.26495 35802 ft 453 kts 325°
2026-05-06 15:42 52.69857 16.21483 35798 ft 452 kts 325°
2026-05-06 15:43 52.75366 16.16430 35801 ft 451 kts 325°
2026-05-06 15:43 52.80812 16.11419 35803 ft 450 kts 325°
2026-05-06 15:44 52.86286 16.06368 35799 ft 449 kts 325°
2026-05-06 15:44 52.91710 16.01348 35802 ft 448 kts 325°
2026-05-06 15:45 52.97154 15.96296 35806 ft 448 kts 325°
2026-05-06 15:45 53.02598 15.91226 35803 ft 448 kts 325°
2026-05-06 15:46 53.08037 15.86150 35805 ft 448 kts 325°
2026-05-06 15:46 53.13485 15.81080 35807 ft 449 kts 327°
2026-05-06 15:47 53.19109 15.76527 35810 ft 452 kts 330°
2026-05-06 15:47 53.24814 15.72191 35816 ft 453 kts 330°
2026-05-06 15:48 53.30555 15.67776 35819 ft 453 kts 329°
2026-05-06 15:48 53.36286 15.63296 35819 ft 454 kts 329°
2026-05-06 15:49 53.41975 15.58812 35820 ft 455 kts 329°
2026-05-06 15:49 53.47717 15.54270 35826 ft 455 kts 329°
2026-05-06 15:50 53.53426 15.49742 35827 ft 455 kts 329°
2026-05-06 15:50 53.59156 15.45185 35835 ft 455 kts 329°
2026-05-06 15:51 53.64888 15.40613 35828 ft 455 kts 329°
2026-05-06 15:51 53.70584 15.36056 35843 ft 455 kts 329°
2026-05-06 15:52 53.76299 15.31471 35839 ft 454 kts 329°
2026-05-06 15:52 53.82014 15.26870 35845 ft 454 kts 329°
2026-05-06 15:53 53.87689 15.22289 35844 ft 453 kts 329°
2026-05-06 15:53 53.93382 15.17678 35855 ft 453 kts 329°
2026-05-06 15:54 53.99077 15.13052 35856 ft 452 kts 329°
2026-05-06 15:54 54.04722 15.08453 35858 ft 452 kts 329°
2026-05-06 15:55 54.10378 15.03830 35862 ft 452 kts 329°
2026-05-06 15:55 54.16053 14.99178 35866 ft 451 kts 330°
2026-05-06 15:56 54.21693 14.94540 35871 ft 452 kts 330°
2026-05-06 15:56 54.27382 14.89855 35878 ft 452 kts 331°
2026-05-06 15:57 54.33258 14.85991 35893 ft 456 kts 337°
2026-05-06 15:57 54.39277 14.82477 35884 ft 457 kts 337°
2026-05-06 15:58 54.45291 14.78914 35889 ft 456 kts 336°
2026-05-06 15:58 54.51290 14.75280 35893 ft 456 kts 336°
2026-05-06 15:59 54.57246 14.71640 35902 ft 456 kts 336°
2026-05-06 15:59 54.63221 14.67977 35900 ft 456 kts 336°
2026-05-06 16:00 54.69215 14.64294 35912 ft 456 kts 336°
2026-05-06 16:00 54.75178 14.60619 35913 ft 458 kts 337°
2026-05-06 16:01 54.81188 14.56869 35924 ft 456 kts 334°
2026-05-06 16:01 54.86679 14.51629 35914 ft 451 kts 324°
2026-05-06 16:02 54.91942 14.45772 35930 ft 449 kts 323°
2026-05-06 16:02 54.97232 14.39918 35919 ft 449 kts 324°
2026-05-06 16:03 55.02489 14.34170 35923 ft 447 kts 324°
2026-05-06 16:03 55.07768 14.28404 35939 ft 448 kts 324°
2026-05-06 16:04 55.13033 14.22632 35944 ft 450 kts 324°
2026-05-06 16:04 55.18350 14.16782 35936 ft 451 kts 324°
2026-05-06 16:05 55.23641 14.10945 35937 ft 452 kts 324°
2026-05-06 16:05 55.29077 14.05324 35940 ft 454 kts 329°
2026-05-06 16:06 55.34704 14.00384 35944 ft 454 kts 330°
2026-05-06 16:06 55.40375 13.95502 35951 ft 452 kts 330°
2026-05-06 16:07 55.45987 13.90584 35945 ft 451 kts 329°
2026-05-06 16:07 55.51578 13.85617 35949 ft 450 kts 329°
2026-05-06 16:08 55.57174 13.80611 35951 ft 449 kts 329°
2026-05-06 16:08 55.62722 13.75633 35950 ft 448 kts 329°
2026-05-06 16:09 55.68300 13.70613 35949 ft 448 kts 329°
2026-05-06 16:09 55.73832 13.65620 35953 ft 448 kts 329°
2026-05-06 16:10 55.79387 13.60590 35960 ft 448 kts 329°
2026-05-06 16:10 55.84958 13.55529 35962 ft 448 kts 329°
2026-05-06 16:11 55.90487 13.50491 35957 ft 448 kts 328°
2026-05-06 16:11 55.96005 13.45447 35955 ft 448 kts 328°
2026-05-06 16:12 56.01563 13.40349 35945 ft 449 kts 328°
2026-05-06 16:12 56.07135 13.35221 35941 ft 449 kts 328°
2026-05-06 16:13 56.12672 13.30110 35941 ft 449 kts 328°
2026-05-06 16:13 56.18225 13.24967 35941 ft 448 kts 328°
2026-05-06 16:14 56.23769 13.19816 35948 ft 448 kts 328°
2026-05-06 16:14 56.29266 13.14691 35948 ft 447 kts 328°
2026-05-06 16:15 56.34805 13.09510 35947 ft 446 kts 327°
2026-05-06 16:15 56.40320 13.04335 35943 ft 446 kts 327°
2026-05-06 16:16 56.45791 12.99184 35947 ft 445 kts 327°
2026-05-06 16:16 56.50359 12.94870 35946 ft 444 kts 327°
2026-05-06 16:17 56.55839 12.89679 35941 ft 443 kts 327°
2026-05-06 16:17 56.61312 12.84478 35941 ft 442 kts 327°
2026-05-06 16:18 56.66733 12.79309 35941 ft 442 kts 327°
2026-05-06 16:18 56.72185 12.74093 35944 ft 441 kts 327°
2026-05-06 16:19 56.77626 12.68871 35939 ft 441 kts 326°
2026-05-06 16:19 56.83022 12.63675 35942 ft 441 kts 326°
2026-05-06 16:20 56.88446 12.58434 35939 ft 441 kts 326°
2026-05-06 16:20 56.93868 12.53178 35935 ft 440 kts 326°
2026-05-06 16:21 56.99294 12.47901 35920 ft 440 kts 326°
2026-05-06 16:21 57.04683 12.42642 35929 ft 440 kts 326°
2026-05-06 16:22 57.10096 12.37344 35933 ft 440 kts 326°
2026-05-06 16:22 57.15608 12.32356 35922 ft 445 kts 333°
2026-05-06 16:23 57.21449 12.28539 35920 ft 447 kts 335°
2026-05-06 16:23 57.27363 12.24852 35928 ft 447 kts 335°
2026-05-06 16:24 57.33208 12.21109 35929 ft 446 kts 334°
2026-05-06 16:24 57.39079 12.17268 35920 ft 446 kts 334°
2026-05-06 16:25 57.44930 12.13407 35919 ft 445 kts 334°
2026-05-06 16:25 57.50727 12.09569 35921 ft 445 kts 334°
2026-05-06 16:26 57.56575 12.05686 35921 ft 444 kts 334°
2026-05-06 16:26 57.62402 12.01805 35921 ft 444 kts 333°
2026-05-06 16:27 57.68187 11.97939 35947 ft 443 kts 333°
2026-05-06 16:27 57.73995 11.94045 35941 ft 443 kts 333°
2026-05-06 16:28 57.79797 11.90141 35948 ft 442 kts 333°
2026-05-06 16:28 57.85597 11.86225 35940 ft 442 kts 333°
2026-05-06 16:29 57.91350 11.82327 35941 ft 441 kts 333°
2026-05-06 16:29 57.97127 11.78400 35945 ft 441 kts 333°
2026-05-06 16:30 58.01930 11.75124 35946 ft 441 kts 333°
2026-05-06 16:30 58.08631 11.70539 35935 ft 435 kts 333°
2026-05-06 16:31 58.14252 11.66686 35953 ft 425 kts 332°
2026-05-06 16:31 58.19926 11.63397 35767 ft 435 kts 342°
2026-05-06 16:32 58.22915 11.62422 35456 ft 433 kts 343°
2026-05-06 16:32 58.25888 11.61574 35070 ft 430 kts 343°
2026-05-06 16:32 58.28807 11.60762 34714 ft 427 kts 343°
2026-05-06 16:32 58.31750 11.59923 34334 ft 424 kts 343°
2026-05-06 16:33 58.34649 11.59068 33960 ft 421 kts 342°
2026-05-06 16:33 58.37537 11.58191 33510 ft 419 kts 342°
2026-05-06 16:33 58.40412 11.57305 33104 ft 415 kts 342°
2026-05-06 16:34 58.46074 11.55542 32337 ft 408 kts 341°
2026-05-06 16:34 58.48836 11.54679 31970 ft 405 kts 341°
2026-05-06 16:34 58.51615 11.53812 31607 ft 402 kts 342°
2026-05-06 16:34 58.54422 11.53309 31265 ft 406 kts 347°
2026-05-06 16:35 58.57242 11.53095 30894 ft 405 kts 349°
2026-05-06 16:35 58.60052 11.52964 30537 ft 403 kts 349°
2026-05-06 16:35 58.62811 11.52850 30190 ft 400 kts 349°
2026-05-06 16:35 58.65599 11.52721 29793 ft 398 kts 348°
2026-05-06 16:36 58.68354 11.52576 29390 ft 394 kts 348°
2026-05-06 16:36 58.71089 11.52417 29027 ft 390 kts 348°
2026-05-06 16:36 58.73794 11.52250 28646 ft 386 kts 348°
2026-05-06 16:36 58.76434 11.52078 28298 ft 382 kts 348°
2026-05-06 16:37 58.79091 11.51901 27923 ft 379 kts 348°
2026-05-06 16:37 58.81715 11.51723 27584 ft 376 kts 347°
2026-05-06 16:37 58.84325 11.51545 27215 ft 373 kts 347°
2026-05-06 16:37 58.86912 11.51368 26865 ft 370 kts 347°
2026-05-06 16:38 58.89446 11.51195 26524 ft 366 kts 347°
2026-05-06 16:38 58.91984 11.51021 26180 ft 363 kts 347°
2026-05-06 16:38 58.94502 11.50848 25856 ft 360 kts 347°
2026-05-06 16:38 58.96999 11.50677 25505 ft 358 kts 347°
2026-05-06 16:39 58.99481 11.50506 25179 ft 356 kts 347°
2026-05-06 16:39 59.01954 11.50335 24852 ft 354 kts 347°
2026-05-06 16:39 59.04409 11.50164 24514 ft 352 kts 347°
2026-05-06 16:39 59.06823 11.49997 24185 ft 350 kts 347°
2026-05-06 16:40 59.09257 11.49828 23859 ft 348 kts 347°
2026-05-06 16:40 59.11680 11.49660 23526 ft 347 kts 347°
2026-05-06 16:40 59.14097 11.49493 23140 ft 345 kts 347°
2026-05-06 16:40 59.16492 11.49327 22768 ft 342 kts 346°
2026-05-06 16:41 59.18844 11.49166 22435 ft 339 kts 346°
2026-05-06 16:41 59.21186 11.49006 22128 ft 335 kts 346°
2026-05-06 16:41 59.23515 11.48846 21800 ft 333 kts 346°
2026-05-06 16:41 59.25830 11.48684 21476 ft 330 kts 346°
2026-05-06 16:42 59.28122 11.48524 21158 ft 328 kts 346°
2026-05-06 16:42 59.30390 11.48365 20850 ft 325 kts 346°
2026-05-06 16:42 59.32613 11.48209 20533 ft 323 kts 346°
2026-05-06 16:42 59.34863 11.48051 20214 ft 321 kts 346°
2026-05-06 16:43 59.37084 11.47895 19916 ft 318 kts 346°
2026-05-06 16:43 59.39292 11.47739 19611 ft 316 kts 346°
2026-05-06 16:43 59.41486 11.47584 19313 ft 314 kts 346°
2026-05-06 16:43 59.43674 11.47429 19012 ft 313 kts 346°
2026-05-06 16:44 59.45849 11.47274 18702 ft 311 kts 346°
2026-05-06 16:44 59.48013 11.47119 18417 ft 311 kts 346°
2026-05-06 16:44 59.50150 11.46965 18110 ft 311 kts 346°
2026-05-06 16:44 59.52316 11.46810 17759 ft 310 kts 347°
2026-05-06 16:45 59.54475 11.46657 17436 ft 308 kts 347°
2026-05-06 16:45 59.56612 11.46507 17154 ft 305 kts 348°
2026-05-06 16:45 59.58729 11.46358 16856 ft 303 kts 348°
2026-05-06 16:45 59.60818 11.46207 16560 ft 305 kts 348°
2026-05-06 16:46 59.62946 11.46051 16253 ft 306 kts 349°
2026-05-06 16:46 59.65080 11.45896 15958 ft 307 kts 349°
2026-05-06 16:46 59.67215 11.45743 15654 ft 306 kts 350°
2026-05-06 16:46 59.69341 11.45591 15367 ft 305 kts 350°
2026-05-06 16:47 59.71467 11.45440 15060 ft 305 kts 351°
2026-05-06 16:47 59.73587 11.45290 14748 ft 303 kts 351°
2026-05-06 16:47 59.75684 11.45141 14462 ft 300 kts 352°
2026-05-06 16:47 59.77761 11.44993 14171 ft 297 kts 352°
2026-05-06 16:48 59.79800 11.44847 13880 ft 295 kts 352°
2026-05-06 16:48 59.81845 11.44700 13580 ft 292 kts 353°
2026-05-06 16:48 59.83873 11.44553 13283 ft 289 kts 353°
2026-05-06 16:48 59.85828 11.44416 12991 ft 280 kts 353°
2026-05-06 16:49 59.87756 11.44280 12715 ft 275 kts 353°
2026-05-06 16:49 59.89670 11.44141 12444 ft 275 kts 353°
2026-05-06 16:49 59.91606 11.43996 12172 ft 280 kts 353°
2026-05-06 16:49 59.93570 11.43849 11883 ft 283 kts 354°
2026-05-06 16:50 59.95539 11.43705 11571 ft 280 kts 354°
2026-05-06 16:50 59.97472 11.43566 11314 ft 275 kts 354°
2026-05-06 16:50 59.99357 11.43430 11039 ft 273 kts 354°
2026-05-06 16:50 60.00638 11.43335 10851 ft 272 kts 354°
2026-05-06 16:51 60.03132 11.43154 10489 ft 269 kts 354°
2026-05-06 16:51 60.04999 11.43019 10224 ft 267 kts 354°
2026-05-06 16:51 60.06850 11.42883 10001 ft 263 kts 355°
2026-05-06 16:51 60.08676 11.42750 9892 ft 266 kts 354°
2026-05-06 16:52 60.10557 11.42609 9574 ft 271 kts 355°
2026-05-06 16:52 60.12408 11.42472 9305 ft 268 kts 355°
2026-05-06 16:52 60.14256 11.42338 9076 ft 261 kts 355°
2026-05-06 16:52 60.16050 11.42210 8797 ft 254 kts 355°
2026-05-06 16:53 60.17791 11.42085 8546 ft 247 kts 354°
2026-05-06 16:53 60.19484 11.41963 8332 ft 240 kts 354°
2026-05-06 16:53 60.21148 11.41840 8164 ft 237 kts 354°
2026-05-06 16:53 60.22791 11.41716 7994 ft 235 kts 354°
2026-05-06 16:54 60.24384 11.41601 7763 ft 238 kts 355°
2026-05-06 16:54 60.26082 11.41487 7511 ft 239 kts 355°
2026-05-06 16:54 60.27758 11.41367 7243 ft 240 kts 354°
2026-05-06 16:54 60.29396 11.41233 6964 ft 233 kts 354°
2026-05-06 16:55 60.31009 11.41108 6702 ft 227 kts 354°
2026-05-06 16:55 60.32548 11.40992 6471 ft 221 kts 355°
2026-05-06 16:55 60.34088 11.40882 6223 ft 218 kts 354°
2026-05-06 16:55 60.35605 11.40763 6041 ft 219 kts 354°
2026-05-06 16:56 60.37113 11.40648 5931 ft 219 kts 354°
2026-05-06 16:56 60.38633 11.40534 5799 ft 216 kts 354°
2026-05-06 16:56 60.40065 11.39892 5669 ft 210 kts 326°
2026-05-06 16:56 60.41052 11.37783 5511 ft 211 kts 296°
2026-05-06 16:57 60.41395 11.34899 5316 ft 215 kts 271°
2026-05-06 16:57 60.41157 11.31880 5092 ft 219 kts 259°
2026-05-06 16:57 60.40781 11.28907 4818 ft 216 kts 258°
2026-05-06 16:57 60.40386 11.26006 4554 ft 211 kts 252°
2026-05-06 16:58 60.39480 11.23770 4327 ft 213 kts 212°
2026-05-06 16:58 60.38084 11.22709 4131 ft 213 kts 201°
2026-05-06 16:58 60.36675 11.21830 3909 ft 216 kts 200°
2026-05-06 16:58 60.35236 11.20984 3647 ft 213 kts 200°
2026-05-06 16:59 60.33822 11.20166 3552 ft 211 kts 200°
2026-05-06 16:59 60.32392 11.19344 3346 ft 215 kts 200°
2026-05-06 16:59 60.30964 11.18520 3061 ft 211 kts 200°
2026-05-06 16:59 60.29568 11.17715 2781 ft 205 kts 200°
2026-05-06 17:00 60.28231 11.16942 2487 ft 194 kts 200°
2026-05-06 17:00 60.26963 11.16209 2245 ft 185 kts 200°
2026-05-06 17:00 60.25736 11.15499 1975 ft 181 kts 200°
2026-05-06 17:00 60.24570 11.14826 1722 ft 171 kts 202°
2026-05-06 17:01 60.23476 11.14188 1438 ft 157 kts 199°
2026-05-06 17:01 60.22469 11.13607 1220 ft 144 kts 199°
2026-05-06 17:01 60.21845 11.13255 1078 ft 139 kts 199°
2026-05-06 17:01 60.20916 11.12704 897 ft 139 kts 197°
2026-05-06 17:02 60.19682 11.12010 682 ft 135 kts 199°
2026-05-06 17:02 60.19129 11.11676 678 ft 104 kts 196°
2026-05-06 17:02 60.18639 11.11391 683 ft 50 kts 197°
2026-05-06 17:02 60.18457 11.11173 682 ft 17 kts 234°
2026-05-06 17:03 60.18439 11.11030 681 ft 9 kts 277°
2026-05-06 17:03 60.18457 11.10909 679 ft 9 kts 286°
2026-05-06 17:03 60.18479 11.10788 678 ft 9 kts 306°
2026-05-06 17:03 60.18539 11.10772 681 ft 9 kts 14°
2026-05-06 17:04 60.18599 11.10807 679 ft 9 kts 16°
2026-05-06 17:04 60.18661 11.10843 681 ft 10 kts 16°
2026-05-06 17:04 60.18736 11.10886 682 ft 12 kts 16°
2026-05-06 17:04 60.18825 11.10938 682 ft 15 kts 16°
2026-05-06 17:05 60.18932 11.10999 682 ft 17 kts 16°
2026-05-06 17:05 60.19047 11.11065 682 ft 17 kts 16°
2026-05-06 17:05 60.19157 11.11129 683 ft 16 kts 16°
2026-05-06 17:05 60.19264 11.11191 684 ft 16 kts 16°
2026-05-06 17:06 60.19362 11.11247 683 ft 14 kts 16°
2026-05-06 17:06 60.19425 11.11185 682 ft 12 kts 289°
2026-05-06 17:06 60.19450 11.11015 680 ft 13 kts 286°
2026-05-06 17:06 60.19474 11.10844 682 ft 13 kts 285°
2026-05-06 17:07 60.19499 11.10674 682 ft 12 kts 286°
2026-05-06 17:07 60.19522 11.10510 678 ft 12 kts 285°
2026-05-06 17:07 60.19536 11.10370 683 ft 9 kts 259°
2026-05-06 17:07 60.19527 11.10286 684 ft 5 kts 263°
2026-05-06 17:08 60.19524 11.10220 684 ft 4 kts 264°
2026-05-06 17:08 60.19522 11.10172 681 ft 3 kts 264°
2026-05-06 17:08 60.19521 11.10152 680 ft 0 kts 264°